Home   Weather   Jeddah   Past weeks
Flag for Saudi Arabia

Past Weather in Jeddah, Saudi Arabia — Yesterday and Last 2 Weeks

Now
75 °F

Clear.


Feels Like: 77 °F
Forecast: 89 / 70 °F
Wind: 9 mph from North

Location: Jeddah King Abdul Aziz International Airport

Current Time: Mar 23, 2019 at 12:08:54 am

Latest Report: Mar 22, 2019 at 11:00 pm


Visibility: 10 mi

Pressure: 29.89 "Hg

Humidity: 69%

Dew Point: 64 °F

Location of JeddahLocation

Past Weather in Jeddah — Graph

°F

Jeddah Temperature Yesterday

Maximum temperature yesterday: 84 °F (at 11:00 am)
Minimum temperature yesterday: 70 °F (at 5:00 am)
Average temperature yesterday: 77 °F

High & Low Weather Summary for the Past Weeks

 TemperatureHumidityPressure
High99 °F (Mar 12, 2:00 pm)89% (Mar 14, 6:00 am)30.07 "Hg (Mar 14, 6:00 am)
Low66 °F (Mar 8, 6:00 am)9% (Mar 9, 5:00 pm)29.80 "Hg (Mar 12, 3:00 pm)
Average78 °F53%29.91 "Hg
* Reported Mar 7 11:00 pm — Mar 22 11:00 pm, Jeddah. Weather by CustomWeather, © 2019

Note: Actual official high and low records may vary slightly from our data, if they occured in-between our weather recording intervals... More about our weather records

Advertising

Jeddah Weather History for the Previous 24 Hours

Scroll right to see more
 ConditionsComfort  
Time TempWeatherWind HumidityBarometerVisibility
11:00 pm
Fri, Mar 22
75 °FClear.9 mph69%29.89 "Hg10 mi
10:00 pm75 °FClear.9 mph74%29.89 "Hg10 mi
9:00 pm75 °FClear.12 mph74%29.89 "Hg10 mi
8:00 pm77 °FClear.14 mph69%29.89 "Hg10 mi
7:00 pm79 °FClear.12 mph61%29.86 "Hg10 mi
6:00 pm81 °FSunny.12 mph51%29.83 "Hg10 mi
5:00 pm82 °FSunny.9 mph48%29.83 "Hg10 mi
4:00 pm82 °FSunny.12 mph51%29.83 "Hg10 mi
3:00 pm82 °FSunny.12 mph55%29.83 "Hg10 mi
2:00 pm84 °FSunny.16 mph51%29.86 "Hg10 mi
1:00 pm84 °FSunny.13 mph51%29.89 "Hg10 mi
12:00 pm84 °FSunny.12 mph48%29.92 "Hg10 mi
11:00 am84 °FSunny.7 mph43%29.92 "Hg10 mi
10:00 am81 °FSunny.9 mph48%29.92 "Hg10 mi
9:00 am77 °FSunny.7 mph51%29.92 "Hg10 mi
8:00 am73 °FSunny.3 mph53%29.92 "Hg10 mi
7:00 am70 °FSunny.7 mph64%29.89 "Hg10 mi
6:00 am70 °FClear.6 mph64%29.86 "Hg10 mi
5:00 am70 °FClear.6 mph64%29.86 "Hg10 mi
4:00 am72 °FClear.5 mph65%29.86 "Hg10 mi
3:00 am73 °FClear.6 mph61%29.86 "Hg10 mi
2:00 am73 °FClear.7 mph61%29.86 "Hg10 mi
1:00 am75 °FClear.7 mph61%29.89 "Hg10 mi
12:00 am77 °FClear.7 mph57%29.89 "Hg10 mi
Weather by CustomWeather, © 2019

See weather overview